Simultaneous Nadir Overpasses (SNOs) Predictions

Prediction of SNOs between GOES-16 and METOP-C Satellite Orbit:

Table of predicted SNOs for the next 14.0 days since TLE Epoch: 11/9/2019
Index Date Time (GOES-16) GOES-16 Lat,Lon METOP-C Lat,Lon Distance(km) Time Diff (sec)
1 11/10/2019 14:17:25 0.01, -75.21 -0.80, -71.49 423.47 80
2 11/12/2019 02:36:24 -0.01, -75.20 -0.20, -76.09 100.52 80
3 11/13/2019 02:13:04 -0.01, -75.21 0.93, -71.09 469.17 80
4 11/14/2019 14:31:57 0.00, -75.23 0.08, -75.66 48.75 80
5 11/17/2019 02:32:55 0.01, -75.23 -0.01, -75.26 2.92 80
6 11/19/2019 14:31:08 -0.01, -75.27 -0.12, -74.83 49.92 80
7 11/21/2019 02:50:08 0.01, -75.27 -0.89, -79.43 472.91 80
8 11/22/2019 02:26:47 0.01, -75.29 0.18, -74.42 97.67 80
9 11/23/2019 14:45:39 -0.01, -75.32 0.82, -78.99 418.74 80




NCC Satellite Simultaneous Nadir Overpasses (SNOs) Prediction Service
